Regional Weather Roundup
Issued by NWS

Home | Current Version | Previous Version | Text Only | Print | Product List | Glossary On
Versions: 1 2 3 4 5 6 7 8 9 10 11 12 13 14 15 16 17 18 19 20 21 22 23 24 25 26 27 28 29 30 31 32 33 34 35 36 37 38 39 40 41 42 43 44 45 46 47 48 49 50
000
ASUS43 KMKX 050421
RWRWI

WISCONSIN REGIONAL WEATHER ROUNDUP
NATIONAL WEATHER SERVICE MILWAUKEE/SULLIVAN WI
1100 PM CDT MON MAY 04 2015

NOTE: "FAIR" INDICATES FEW OR NO CLOUDS BELOW 12,000 FEET WITH NO
SIGNIFICANT WEATHER AND/OR OBSTRUCTIONS TO VISIBILITY.

WIZ001-002-006>008-014>016-023>028-050500-
NORTHWEST WISCONSIN

CITY           SKY/WX    TMP DP  RH WIND       PRES   REMARKS
SUPERIOR ARPT  CLEAR     41  31  68 N6        30.23R
ASHLAND        CLEAR     41  38  89 CALM      30.24R
HAYWARD        CLEAR     43  32  65 CALM      30.23R
SIREN          CLEAR     43  30  59 CALM      30.22R
CUMBERLAND     CLEAR     52  27  37 NE3       30.22R
RICE LAKE      CLEAR     51  31  45 CALM      30.23R
CHETEK         CLEAR     57  29  35 NE5       30.21R
LADYSMITH      CLEAR     53  24  32 NE8       30.23S
EAU CLAIRE     PTCLDY    49  37  63 CALM      30.18S
MENOMONIE      PTCLDY    54  41  63 NW6       30.19F
NEW RICHMOND   CLEAR     49  36  61 CALM      30.20S
OSCEOLA        CLEAR     48  39  71 CALM      30.23R
$$

WIZ003>005-009-010-017-018-050500-
NORTH CENTRAL WISCONSIN

CITY           SKY/WX    TMP DP  RH WIND       PRES   REMARKS
MANITOWISH WTR CLEAR     40  34  80 CALM      30.24F
ARBOR VITAE    CLEAR     45  27  49 CALM      30.25R
WOODRUFF       CLEAR     45  27  49 CALM      30.25R
RHINELANDER    PTCLDY    50  28  42 E5        30.26R
EAGLE RIVER    CLEAR     44  31  60 E5        30.25R
LAND O LAKES   CLEAR     38  32  79 CALM      30.26S
PHILLIPS       CLEAR     46  23  39 CALM      30.23S
TOMAHAWK       PTCLDY    49  27  42 CALM      30.25R
MEDFORD        PTCLDY    51  29  42 NE8       30.21S
MERRILL        PTCLDY    54  40  59 E6        30.23S
$$

WIZ029-030-035-036-043>047-050500-
CENTRAL WISCONSIN

CITY           SKY/WX    TMP DP  RH WIND       PRES   REMARKS
WAUSAU         CLEAR     53  41  63 E8        30.21R
MOSINEE        CLEAR     52  39  62 E8        30.23S
MARSHFIELD     PTCLDY    55  39  54 E10       30.20R
STEVENS POINT  PTCLDY    51  40  64 E5        30.23R
WAUPACA        PTCLDY    56  41  56 E6        30.22S
WAUTOMA        MOCLDY    56  40  55 E7        30.22R
WISC RAPIDS    FAIR      55  40  56 E9        30.21R
CAMP DOUGLAS   MOCLDY    48  46  93 CALM      30.17R
$$

WIZ011>013-019>022-031-037>040-048>050-050500-
NORTHEAST WISCONSIN

CITY           SKY/WX    TMP DP  RH WIND       PRES   REMARKS
ANTIGO         PTCLDY    49  40  70 SE6       30.25R
SHAWANO        PTCLDY    53  39  59 E8        30.25S
OCONTO         PTCLDY    50  35  56 E3        30.26R
STURGEON BAY   MOCLDY    48  32  53 E9        30.28S
GREEN BAY      PTCLDY    54  36  50 E10       30.24R
MANITOWOC      PTCLDY    51  35  54 N5        30.24S
APPLETON       MOCLDY    55  36  47 E8        30.23R
CLINTONVILLE   MOCLDY    52  39  62 NE5       30.24R
OSHKOSH        MOCLDY    55  39  54 E3        30.22R
$$

WIZ032>034-041-042-053>061-050500-
SOUTHWEST WISCONSIN

CITY           SKY/WX    TMP DP  RH WIND       PRES   REMARKS
LA CROSSE      MOCLDY    58  46  64 N3        30.16R
SPARTA         MOCLDY    49  40  71 CALM      30.18S
VIROQUA        MOCLDY    57  40  54 NE8       30.17R
BOSCOBEL       CLOUDY    63  52  67 NE3       30.15R
PRAIRIE DU CHI CLOUDY    65  51  62 CALM      30.13S
PLATTEVILLE    CLOUDY    63  56  80 E12       30.16R
$$

WIZ056-057-062-063-064-067-068-050500-
SOUTH CENTRAL WISCONSIN

CITY           SKY/WX    TMP DP  RH WIND       PRES   REMARKS
REEDSBURG      CLOUDY    62  42  49 SE6       30.17S
BARABOO/DELLS  MOCLDY    59  31  34 CALM      30.18S
LONE ROCK      CLOUDY    63  44  50 E15       30.16R
MINERAL POINT  CLOUDY    63  41  45 E10G20    30.17R
MADISON        MOCLDY    59  36  42 SE6       30.18S
MIDDLETON      MOCLDY    60  36  40 SE3       30.19S
WATERTOWN      MOCLDY    55  39  55 E6        30.19S
MONROE         CLOUDY    59  43  55 NE8       30.17S
JANESVILLE     MOCLDY    57  37  47 E6        30.17F
$$

WIZ051-052-058>065-066-070>072-050500-
SOUTHEAST WISCONSIN

CITY           SKY/WX    TMP DP  RH WIND       PRES   REMARKS
MILWAUKEE      PTCLDY    51  32  48 NE5       30.21R
WAUKESHA       CLEAR     50  34  53 NE5       30.21F
MILWAUKEE/TIMM PTCLDY    52  32  46 N3        30.22S
RACINE         CLEAR     51  35  54 N3        30.22S
BURLINGTON     PTCLDY    51  36  57 CALM      30.19S
KENOSHA        CLEAR     50  38  63 N3        30.20S
FOND DU LAC    MOCLDY    54  33  45 E5        30.21R
SHEBOYGAN      MOCLDY    45  35  68 NE6       30.22S
WEST BEND      MOCLDY    50  34  53 CALM      30.22R
JUNEAU         MOCLDY    53  39  59 E8        30.21S
$$

LSZ147-162-050500-
LAKE SUPERIOR

STATION/POSITION TIME  TEMP    WIND        PRES    WAVE
                       AIR SEA DIR/SP/G            HT/PER
                 (UTC) (F)     (DEG/KT/KT) (MB)    (FT/S)
W MID LAKE BUOY  0350   40 35  360/  4/  4 1024.8R   0
DEVILS ISLAND    0400           50/  7/  8 1024.5R
PORT WING        0300   52     130/  3/  6 1023.0R
SAXON HARBOR     0340   45        CALM     1023.4R
$$

LMZ867-665-643>646-050500-
LAKE MICHIGAN

STATION/POSITION TIME  TEMP    WIND        PRES    WAVE
                       AIR SEA DIR/SP/G            HT/PER
                 (UTC) (F)     (DEG/KT/KT) (MB)    (FT/S)
CHAMBERS ISLAND  0300   49     100/  5/  6 1024.4R
NORTHPORT PIER   0300   46     160/  3/  6 1024.4R
SISTER BAY       0302   45        CALM       N/A
KEWAUNEE LAKESHO 0300   47      50/  6/  9 1023.3R
SHEBOYGAN LAKESH 0400   49      30/ 14/ 16 1023.7R
PORT WASHINGTON  0300   54      10/  5/  9 1023.4
ATWATER BUOY     0400   49     350/  6/  8 1024.2S
MILWAUKEE LAKESH 0400   54      10/  5/  7   N/A
KENOSHA   LAKESH 0400   51     360/  5/  6 1022.4F
$$

TC  - TEMPERATURE IN CELSIUS
VSB - VISIBILITY IN STATUTE MILES
WCI - WIND CHILL INDEX
HX  - HEAT INDEX




USA.gov is the U.S. government's official web portal to all federal, state and local government web resources and services.